Location: Contre
(49.7477°N, 2.0963°E)
Time: 19:55:37
(UTC+00:00)

Meteor 2-12 Rocket - Pass Details

Date: 05 August 2024
Orbit: 936 x 957 km, 82.5° (Epoch: 07 September)

Event Time Altitude Azimuth Distance (km) Brightness Sun altitude
Rises 23:27:39 0° 358° (N) 3,609 8.9 -23.3°
Reaches altitude 10° 23:30:57 10° 15° (NNE) 2,663 7.7 -23.4°
Maximum altitude 23:35:13 19° 60° (ENE) 2,061 6.4 -23.4°
Drops below altitude 10° 23:39:28 10° 105° (ESE) 2,659 6.6 -23.5°
Enters shadow 23:39:33 10° 106° (ESE) 2,678 6.6 -23.5°
